Temp
23 23 23 22 23 23 23 23 23 23 23 22 22 21 21 21 21 20 20 20 20 19 19 19 19 18 17 17 18 17 17 17 18 17 17 17 17 18 17 17 18 18 18
24 23 23 23 23 23 23 23 23 23 22 22 22 21 21 21 20 20 20 20 20 20 20 20 19 19 19 18 18 18 18 18 17 18 17 17 17 17 17 17 17 18 18
24 23 23 23 23 23 23 23 23 23 23 22 22 22 21 21 20 20 20 19 19 18 18 18 18 19 19 18 18 18 18 18 18 18 17 17 17 17 17 17 17 17 17
25 23 23 23 23 23 23 23 23 22 23 22 22 21 21 21 20 20 19 18 18 17 17 17 17 18 18 18 18 18 18 18 17 18 17 17 17 17 17 17 17 17 17
23 23 23 22 22 23 23 23 23 22 22 22 22 21 20 20 20 20 19 19 18 18 17 17 18 18 18 18 18 18 18 18 18 18 17 17 17 17 17 17 17 17 16
22 23 22 22 22 22 23 22 22 22 22 21 21 21 20 20 20 20 19 19 19 18 17 17 18 18 18 17 17 17 18 18 19 18 18 17 17 17 17 17 17 17 16
22 22 22 22 22 22 22 22 22 21 21 21 20 20 20 20 20 20 19 19 19 19 18 17 17 18 18 17 17 17 17 18 18 18 18 18 17 17 17 17 17 17 16
23 22 21 21 21 21 21 21 21 21 21 20 20 20 20 20 19 19 19 19 19 19 18 18 18 18 18 17 17 17 17 17 18 18 17 17 17 17 16 17 17 16 16
22 22 21 21 20 20 21 21 21 20 20 20 20 20 20 19 19 19 19 19 19 18 18 18 18 18 19 18 17 17 17 16 17 18 17 17 17 17 16 17 17 17 16
21 21 21 20 19 19 19 20 20 20 20 20 20 20 19 19 19 20 19 19 18 18 18 17 17 17 18 18 17 17 17 17 17 17 17 17 17 17 16 16 16 16 16
20 20 20 19 20 20 19 19 20 20 20 20 20 20 19 19 19 19 19 19 18 18 18 18 18 17 17 17 18 16 17 17 16 16 17 17 17 16 15 15 15 16 16
19 19 20 19 20 20 19 19 19 19 20 19 19 19 19 19 19 19 19 19 18 18 18 18 18 18 18 18 18 17 17 17 17 16 16 17 17 16 15 15 14 15 15
20 20 19 20 19 20 20 19 18 18 19 19 19 19 19 19 19 19 19 19 18 18 18 18 18 18 17 18 18 18 17 17 17 16 16 16 17 16 15 15 15 14 14
20 20 20 20 20 19 19 19 19 19 19 19 19 19 19 19 19 19 19 18 18 18 18 17 18 18 18 17 17 17 17 17 17 17 17 16 16 17 16 15 14 14 14
21 21 20 20 19 19 19 19 19 20 20 20 19 19 19 19 19 19 19 18 18 18 18 18 17 17 17 17 17 17 17 17 17 17 17 17 16 16 16 15 14 14 14
21 21 20 19 19 19 19 19 19 19 19 20 19 19 19 18 18 18 18 18 18 18 18 18 18 17 17 17 17 17 17 17 17 17 17 17 17 17 16 16 15 14 14
21 21 20 20 20 19 19 19 19 19 19 18 18 18 18 18 18 17 17 17 17 17 17 17 17 17 17 17 17 17 17 17 17 17 17 17 17 17 17 16 16 15 14
21 20 20 20 20 19 19 18 18 18 18 18 18 18 18 18 18 17 17 16 16 16 16 16 16 16 16 15 16 16 16 17 17 17 17 17 17 17 17 17 16 15 15
21 20 20 19 19 19 19 18 18 18 18 18 18 17 17 17 17 16 16 16 16 15 15 15 15 15 15 15 15 15 15 15 15 16 16 16 17 17 17 17 17 16 15
19 19 19 19 18 18 18 18 18 17 17 16 16 17 17 17 17 17 16 16 16 16 16 15 15 15 15 14 14 15 15 15 15 15 16 16 16 16 17 16 16 16 15
17 18 18 18 18 18 18 18 17 16 17 17 17 17 16 16 16 16 15 16 16 15 14 14 14 14 14 14 14 13 14 15 15 16 14 14 15 15 14 15 14 15 15
17 17 18 18 17 18 18 18 18 17 17 17 16 16 16 16 16 16 16 16 15 15 14 13 13 13 13 13 12 12 11 13 14 13 14 15 15 14 14 14 14 13 13
16 17 17 17 18 18 18 18 17 17 17 16 16 15 15 15 15 15 15 15 14 14 13 13 13 13 12 13 13 11 10 10 11 13 13 13 13 14 13 13 13 13 13
16 17 17 17 18 18 18 18 18 16 15 14 14 15 15 14 14 14 14 14 14 13 13 13 13 12 11 10 10 11 11 10 10 10 12 11 11 11 12 12 12 12 12
16 16 17 17 17 17 17 17 17 16 15 15 15 15 14 14 14 14 14 14 14 13 13 13 13 13 12 11 9 9 9 9 10 9 9 9 9 9 10 10 12 12 11
15 16 16 16 16 16 16 16 16 15 15 15 14 14 14 14 14 14 13 13 13 13 13 13 13 12 12 12 11 10 9 9 9 8 7 9 9 10 10 10 10 10 11
Height
785 789 794 798 800 802 803 805 807 809 811 812 813 815 816 817 818 820 822 823 825 826 827 828 829 829 830 831 830 831 832 832 832 832 832 833 832 831 832 832 831 831 832
781 788 793 797 801 803 805 807 809 811 813 814 816 817 818 820 821 823 824 824 825 826 828 828 830 831 832 832 833 834 834 834 834 833 834 834 835 834 833 834 834 833 834
781 788 793 798 801 804 807 810 811 814 814 817 818 819 820 822 824 826 827 828 828 829 831 832 832 833 833 834 835 835 836 837 837 835 836 836 836 836 836 836 836 835 834
782 788 793 798 801 805 808 810 813 816 817 818 821 822 823 824 825 827 830 831 832 833 834 835 835 835 835 836 836 837 838 838 838 838 837 837 838 838 837 838 837 837 836
784 788 793 799 803 806 809 812 814 816 818 820 822 825 826 828 829 830 832 833 835 836 837 837 837 838 839 839 838 838 838 839 839 839 839 839 839 839 839 839 839 838 837
786 790 795 800 804 808 810 813 815 818 820 822 824 827 829 830 831 832 833 834 835 837 838 839 840 840 840 840 841 841 840 839 838 839 839 840 841 841 841 840 840 840 840
787 792 797 801 805 809 812 815 817 820 822 823 825 827 829 830 831 832 833 835 836 837 838 839 840 841 841 842 841 842 842 842 841 840 840 840 840 841 841 841 841 841 841
789 794 799 803 806 810 813 816 818 820 822 824 826 827 829 830 832 833 834 835 835 836 837 837 838 839 840 840 841 842 842 843 842 842 841 841 840 840 841 841 840 841 840
791 795 798 803 806 810 813 815 818 820 822 824 826 827 829 830 831 833 833 834 835 836 837 838 839 839 839 840 840 840 841 842 843 842 842 842 842 841 840 840 840 840 839
792 794 797 801 805 809 812 814 817 819 821 823 825 827 829 830 830 831 832 833 835 836 837 839 839 839 839 840 841 840 841 841 841 841 842 842 842 842 841 840 839 838 838
792 794 796 799 803 807 810 813 816 818 821 823 824 826 828 829 830 831 831 832 833 835 836 837 838 839 840 840 840 839 839 839 839 840 840 840 841 842 841 841 840 839 837
790 793 795 798 800 804 808 811 813 816 819 822 824 826 827 828 829 830 831 832 833 834 834 835 836 836 837 838 838 838 837 837 837 837 838 839 838 839 841 841 840 838 838
789 791 793 796 800 803 805 808 811 814 818 820 823 825 826 827 828 829 830 831 831 832 833 833 834 835 835 835 835 836 835 835 835 835 835 836 837 838 838 839 839 838 837
788 791 794 797 799 803 805 807 811 814 817 820 822 824 825 826 827 828 828 829 830 831 831 832 832 832 832 832 832 832 832 831 831 830 830 830 831 832 835 838 838 837 837
786 788 792 795 798 802 806 808 811 814 816 818 820 822 823 824 825 826 827 828 828 829 829 829 829 829 829 829 828 828 828 827 826 825 825 825 826 827 828 829 832 832 834
784 787 791 795 798 802 805 808 810 812 815 817 819 821 822 823 824 825 826 827 827 828 828 828 827 827 826 826 825 824 823 823 822 820 820 820 820 820 820 822 824 826 826
781 786 790 795 798 801 805 807 809 812 814 817 819 821 821 822 822 823 824 825 825 826 825 825 824 823 822 821 819 818 818 818 818 816 816 816 816 815 815 817 817 818 820
781 785 790 794 798 800 803 808 810 812 814 817 819 820 821 821 821 821 822 822 822 822 822 822 821 820 818 817 815 814 813 812 812 811 810 809 809 810 810 810 812 814 814
781 783 785 792 797 801 804 807 811 813 815 817 818 820 820 821 821 821 822 822 822 821 821 820 820 819 817 815 813 811 810 808 807 805 803 803 803 803 803 804 805 806 807
780 782 785 791 798 802 804 808 810 813 816 818 819 820 821 822 822 823 822 822 822 821 821 821 820 819 817 814 811 808 806 804 803 800 799 797 796 796 795 796 798 799 802
780 782 786 790 796 801 804 807 810 814 816 818 819 820 821 821 821 821 822 822 822 821 820 819 818 816 815 813 809 804 800 797 798 797 797 795 793 791 792 792 791 791 792
781 784 787 790 796 800 802 805 809 812 815 816 817 817 818 819 820 820 820 819 818 817 817 816 817 816 814 812 810 806 800 795 792 794 792 791 789 788 786 785 785 785 785
782 784 787 790 794 798 802 804 808 811 813 815 817 819 819 820 819 819 819 819 819 818 818 817 817 816 813 812 810 810 806 801 795 789 790 790 789 786 784 782 779 779 778
784 786 787 790 794 799 803 804 807 810 813 816 817 817 818 819 820 820 820 819 819 818 818 817 816 814 812 810 808 807 806 804 798 788 786 787 787 785 781 778 775 773 772
782 785 787 790 794 798 802 804 806 808 812 814 815 816 818 818 818 818 818 817 816 815 814 812 811 811 810 808 806 805 803 802 800 797 782 780 780 782 782 778 771 768 767
782 784 787 790 794 798 800 803 805 809 812 814 816 817 817 816 815 815 813 813 813 811 810 809 808 807 806 805 804 803 802 800 796 794 788 776 771 765 766 773 772 767 762
Wind_Speed
20 25 23 22 21 20 21 22 24 25 25 24 23 21 19 19 19 19 17 16 14 12 11 11 11 12 13 13 13 14 14 14 12 13 13 11 12 12 11 13 15 15 14
25 27 25 23 22 21 20 20 20 21 22 21 20 19 18 17 17 17 15 14 13 12 11 12 13 13 12 12 14 15 14 13 13 14 12 11 11 12 11 11 14 14 13
27 28 25 23 22 20 20 19 19 18 18 17 17 16 16 16 16 14 13 11 11 11 10 11 12 11 12 13 13 13 14 13 11 11 10 11 10 10 12 11 10 14 15
28 28 26 24 23 21 20 18 18 16 16 15 15 15 14 14 13 12 10 9 8 8 8 9 10 10 10 12 11 10 7 5 5 5 8 8 8 7 8 7 9 7 9
30 28 26 24 22 21 20 18 17 15 14 14 13 12 11 10 9 8 8 7 7 6 5 6 7 7 7 7 6 6 5 2 1 5 5 6 7 6 6 7 6 7 10
28 26 25 23 21 21 19 18 16 14 13 12 11 10 9 8 6 6 5 5 5 5 4 3 3 4 4 3 2 2 1 1 2 5 6 5 4 4 4 6 5 4 5
25 22 23 21 20 19 18 17 15 13 11 11 9 8 7 5 5 4 4 3 3 2 4 3 0 2 2 1 1 1 2 2 3 4 6 5 4 2 3 5 5 4 5
22 20 20 19 19 18 18 16 14 13 11 10 9 7 5 4 3 2 2 3 3 2 3 3 3 2 3 4 4 4 4 4 5 5 6 6 5 3 3 4 5 6 6
18 19 19 18 17 17 16 16 14 13 11 10 9 7 5 4 3 2 3 3 3 3 3 3 4 4 4 5 5 7 7 6 6 5 8 8 7 6 5 5 6 7 7
17 19 20 19 18 16 16 17 16 14 12 10 9 7 6 5 5 5 5 5 5 5 5 5 6 6 6 7 8 9 10 10 8 7 8 10 11 9 9 8 8 8 9
16 18 21 22 20 18 17 15 14 14 12 11 11 10 8 7 7 6 6 6 7 7 7 7 7 8 10 10 10 10 12 13 13 11 12 12 14 14 11 11 11 10 11
18 20 22 23 22 19 17 16 15 14 14 12 11 10 9 8 8 8 8 8 8 9 9 9 9 9 11 12 13 13 14 14 14 14 14 15 15 16 14 14 13 12 13
19 21 24 24 22 20 18 16 15 14 13 11 10 9 9 9 9 10 10 10 11 12 12 12 12 12 13 13 13 15 16 15 15 16 16 14 16 17 16 16 16 14 13
18 19 20 21 20 19 16 15 14 13 11 10 9 9 10 11 11 11 12 12 13 13 15 15 15 15 15 15 16 16 17 18 18 18 18 18 17 18 18 17 17 16 16
21 20 19 18 18 16 14 12 12 11 10 9 8 9 10 11 11 12 12 13 14 14 16 17 19 20 21 21 21 21 21 20 20 20 21 19 20 21 22 19 19 17 17
22 21 18 16 15 15 14 12 10 9 8 8 7 6 9 12 14 15 14 15 16 17 18 20 21 23 25 26 27 27 27 25 24 23 22 22 22 24 24 25 24 22 19
26 23 20 17 15 14 13 12 10 7 6 5 4 5 6 9 12 14 15 17 18 18 20 22 24 25 27 29 31 33 31 29 28 27 27 27 27 27 27 29 30 28 24
22 23 21 19 17 15 15 12 8 7 8 7 4 4 6 8 8 8 11 12 13 15 16 17 20 23 26 26 28 29 32 32 31 32 32 31 32 32 33 31 32 33 31
20 24 26 23 20 16 12 14 11 8 7 8 9 10 11 11 11 11 11 11 11 10 11 14 15 16 20 22 23 24 25 26 28 29 32 31 31 34 38 37 36 37 36
16 19 26 24 20 19 19 18 18 17 16 15 16 16 15 13 12 11 12 13 14 15 16 15 14 15 17 20 22 24 21 20 23 26 29 30 33 34 34 39 40 39 41
15 20 27 28 23 21 23 21 19 17 19 17 14 14 13 13 13 13 13 14 13 13 12 12 13 13 16 21 17 23 18 22 18 21 25 29 31 33 36 35 39 41 43
21 24 27 27 25 22 21 19 19 17 15 14 12 13 14 13 13 15 16 17 15 12 11 12 12 13 12 17 11 16 4 15 5 24 24 21 25 29 33 35 36 38 38
26 28 29 27 26 23 21 22 19 14 11 10 12 13 13 12 11 11 12 13 13 13 12 12 14 15 11 14 13 5 3 3 16 5 21 22 23 25 29 34 36 40 41
27 29 30 29 26 23 19 18 14 13 10 9 10 10 10 11 12 11 12 13 13 12 13 14 14 13 13 13 12 5 10 9 3 6 2 20 19 27 27 30 35 37 39
29 30 30 29 26 22 18 14 14 14 12 9 7 8 8 9 9 10 11 12 12 9 10 11 13 14 14 13 11 10 8 11 10 3 12 7 13 20 29 30 31 30 35
29 30 30 28 24 19 17 15 14 12 8 6 5 6 6 6 6 5 5 4 6 8 10 11 11 12 13 14 15 14 15 10 10 10 5 11 13 14 16 31 32 30 32
Wind_Direction
183 174 173 167 155 145 136 132 129 127 129 133 135 135 132 132 135 136 135 132 131 127 124 119 115 113 111 111 112 114 112 110 105 102 103 91 80 85 98 93 89 80 72
171 172 172 170 161 150 141 134 130 126 126 127 129 129 129 133 136 138 137 136 136 133 129 123 122 118 116 114 114 114 111 104 107 99 100 92 83 80 90 107 102 101 90
168 169 170 170 167 159 150 141 136 133 128 126 126 125 127 131 135 136 136 135 132 128 124 125 127 122 119 118 121 117 108 98 102 108 103 99 94 86 83 85 111 116 103
169 170 169 171 170 166 159 152 146 142 136 132 128 125 129 132 136 139 138 131 126 120 120 125 128 127 126 124 128 130 126 109 105 105 109 113 111 102 95 96 83 97 117
169 171 169 171 172 169 165 160 153 150 145 139 134 129 128 126 129 134 135 134 122 114 114 119 131 132 129 128 136 140 132 91 141 178 128 135 121 119 123 117 121 110 112
166 171 169 171 172 173 170 166 159 156 150 144 136 130 126 125 126 129 133 136 141 140 125 105 119 133 143 129 109 116 119 70 64 176 170 158 147 138 144 146 135 138 121
166 169 169 173 174 176 174 172 165 160 156 149 146 141 139 137 137 145 154 160 160 167 160 145 227 157 182 208 257 293 318 341 355 158 190 183 180 172 183 177 173 174 148
163 165 168 173 175 178 179 176 171 169 165 162 161 162 161 153 153 164 179 192 193 203 205 207 233 226 223 231 265 291 302 300 300 247 221 216 205 220 224 214 197 189 188
164 166 170 173 175 177 179 177 177 174 172 173 176 177 182 183 195 222 223 224 227 237 250 261 274 269 261 253 261 271 278 290 299 275 242 241 234 229 228 222 218 219 212
168 172 174 174 173 175 179 180 184 180 182 184 190 194 199 211 220 233 238 236 240 247 266 283 294 286 282 279 276 275 277 276 270 263 257 261 253 242 236 242 240 237 230
168 179 178 179 181 183 183 183 187 185 189 193 197 203 215 229 241 251 253 251 249 251 260 273 289 294 297 293 283 281 278 278 279 269 265 267 263 258 244 243 248 248 239
174 182 188 188 186 185 186 186 187 187 193 201 208 216 228 239 253 262 266 263 259 261 263 271 276 285 288 299 299 291 294 284 276 277 274 273 264 255 252 258 248 248 243
182 184 190 192 192 191 188 186 186 189 196 203 215 229 245 253 257 265 270 268 266 264 266 272 276 283 288 290 298 301 301 296 288 280 279 272 268 261 251 252 250 250 246
190 192 191 196 199 200 200 193 194 194 199 212 225 242 257 264 265 271 274 274 272 273 274 276 278 278 282 286 289 294 297 295 291 283 277 268 259 259 258 257 256 254 248
194 195 196 193 198 199 202 203 198 201 212 225 234 250 264 269 269 272 276 278 278 276 275 279 281 282 282 284 285 286 288 289 289 286 277 269 260 256 255 244 247 250 250
199 196 194 191 190 194 199 203 204 206 208 221 238 270 283 282 278 277 283 289 288 288 288 285 287 286 285 284 285 285 285 285 285 282 279 268 263 257 251 248 241 242 240
198 195 189 181 177 187 187 181 179 186 214 240 254 294 322 312 298 293 294 293 296 296 295 294 291 290 285 285 282 285 286 287 286 283 280 276 266 259 257 251 247 242 238
192 193 186 180 176 177 180 182 149 136 114 110 82 16 3 13 9 346 326 320 321 318 317 310 309 302 302 300 298 298 291 288 288 288 285 277 271 264 259 255 249 247 246
193 196 184 181 173 165 165 177 163 136 117 99 93 75 65 58 49 42 33 23 14 6 2 355 346 338 326 317 311 306 306 296 299 296 289 284 282 274 264 260 255 247 244
185 184 183 174 165 157 144 136 122 112 102 98 85 72 63 58 50 39 33 22 11 5 7 6 4 354 341 333 326 323 317 308 301 290 289 288 285 279 272 264 260 255 248
156 163 167 164 161 156 137 130 123 112 100 87 77 64 57 51 45 34 26 20 15 11 6 0 358 353 352 350 335 329 311 300 305 297 287 288 284 284 281 275 266 262 254
149 152 153 149 146 142 139 129 125 116 96 76 62 46 37 30 22 15 8 9 6 2 2 3 9 1 346 354 338 321 332 311 315 325 314 302 292 288 284 283 271 264 250
142 142 137 133 133 132 128 126 121 115 102 73 54 45 39 29 21 24 22 19 13 10 13 9 354 349 334 335 336 309 333 297 322 333 317 310 316 305 294 283 279 271 259
137 134 132 131 128 123 123 120 112 96 92 67 61 52 44 39 36 30 24 17 11 4 358 3 358 347 331 318 324 278 283 293 307 316 16 315 327 324 316 297 282 273 265
145 140 134 128 125 122 114 104 97 87 77 64 44 30 35 35 25 10 6 1 354 5 13 1 353 349 345 329 311 300 274 272 286 288 305 294 321 324 317 308 297 284 271
150 143 138 133 125 122 114 104 95 90 86 69 50 57 41 20 3 353 353 3 357 342 337 337 339 340 334 326 323 300 279 270 265 254 254 295 291 287 287 305 306 299 284